Regional Weather Roundup
Issued by NWS

Home | Current Version | Previous Version | Graphics & Text | Print | Product List | Glossary On
Versions: 1 2 3 4 5 6 7 8 9 10 11 12 13 14 15 16 17 18 19 20 21 22 23 24 25 26 27 28 29 30 31 32 33 34 35 36 37 38 39 40 41 42 43 44 45 46 47 48 49 50
000
ASUS43 KFSD 161410
RWRSD

WEATHER ROUNDUP FOR SOUTH DAKOTA
NATIONAL WEATHER SERVICE SIOUX FALLS SD
800 AM CST MON JAN 16 2017

NOTE: "FAIR" INDICATES FEW OR NO CLOUDS BELOW 12,000 FEET WITH NO
SIGNIFICANT WEATHER AND/OR OBSTRUCTIONS TO VISIBILITY.


SDZ001>005-009-010-012>017-161500-
NORTHWEST AND NORTH CENTRAL SOUTH DAKOTA

CITY           SKY/WX    TMP DP  RH WIND       PRES   REMARKS
BUFFALO          N/A     16   5  62 W10       30.00R WCI   4
FAITH            N/A     13   5  70 NW14      30.06S WCI  -2
MOBRIDGE       CLOUDY    -4 -10  75 CALM      30.05S
$$

SDZ012>016-024>037-041>051-057-063-072>074-161500-
SOUTHWEST AND SOUTH CENTRAL SOUTH DAKOTA

CITY           SKY/WX    TMP DP  RH WIND       PRES   REMARKS
RAPID CTY ARPT CLOUDY    26   8  46 N18       30.06S WCI  13
PIERRE         CLOUDY     6   2  83 W5        30.09R WCI  -3
CUSTER         CLOUDY    26   8  46 NW5       30.02S WCI  20
ELLSWORTH AFB  CLOUDY    31   7  36 NW25      30.04F WCI  17
PHILIP         CLOUDY     9   5  84 W8        30.09R WCI  -3
PINE RIDGE     CLOUDY    18  17  96 CALM      30.07S
SPEARFISH      FAIR      23   7  50 W10       30.10R WCI  12
WINNER         PTSUNNY   20  16  84 NW3       30.08S
$$

SDZ004>011-016>023-039-040-161500-
NORTHEAST SOUTH DAKOTA

CITY           SKY/WX    TMP DP  RH WIND       PRES   REMARKS
ABERDEEN       CLOUDY    -2  -7  79 S8        30.10S WCI -17
WATERTOWN      CLOUDY     7   3  84 CALM      30.07F FOG
BROOKINGS      CLOUDY    10   7  87 CALM      30.08S
SISSETON         N/A     10   8  92 S3        30.07F
$$

SDZ017-020-022-023-036>040-048>070-161500-
SOUTHEAST SOUTH DAKOTA

CITY           SKY/WX    TMP DP  RH WIND       PRES   REMARKS
SIOUX FALLS    CLOUDY    23  19  85 N3        30.06F
HURON          CLOUDY    11   8  88 CALM      30.11R
CHAMBERLAIN    CLOUDY    14  12  90 W5        30.10S WCI   7
MITCHELL       CLOUDY    16  14  92 NW8       30.10F WCI   5
YANKTON        MOCLDY    30  27  86 N6        30.05F WCI  24
$$

ABBREVIATIONS USED IN REMARKS
   TC - TEMPERATURE IN CELSIUS
  WCI - WIND CHILL INDEX
   HX - HEAT INDEX
  VSB - VISIBILITY




USA.gov is the U.S. government's official web portal to all federal, state and local government web resources and services.